• In Slovakia
  • List of Countries
  • For 7 days
  • Water Temperature
  • Satellite Maps
  • Weather Map
  • Weather Widgets
  • user-avatar
    Login

    Hourly Weather Uige

    Today, 19 January, Friday

    Time Temperature Precipitation Wind Pressure Humidity
    00:00 +21°C° 0.7 mm 1 mps 691 mmHg 99%
    01:00 +21°C° 0.7 mm 1 mps 691 mmHg 99%
    02:00 +21°C° 0.1 mm 1 mps 691 mmHg 99%
    03:00 +21°C° 0.1 mm 1 mps 690 mmHg 99%
    04:00 +21°C° 0.1 mm 1 mps 690 mmHg 99%
    05:00 +21°C° 0 mm 1 mps 690 mmHg 99%
    06:00 +21°C° 0 mm 1 mps 691 mmHg 98%
    07:00 +21°C° 0 mm 1 mps 691 mmHg 98%
    08:00 +22°C° 0.1 mm 1 mps 691 mmHg 94%
    09:00 +23°C° 0.1 mm 1 mps 691 mmHg 90%
    10:00 +24°C° 0.1 mm 1 mps 691 mmHg 86%
    11:00 +25°C° 0.5 mm 2 mps 691 mmHg 85%
    12:00 +26°C° 0.5 mm 2 mps 691 mmHg 83%
    13:00 +27°C° 0.5 mm 2 mps 690 mmHg 82%
    14:00 +26°C° 0.9 mm 2 mps 690 mmHg 86%
    15:00 +25°C° 0.9 mm 2 mps 689 mmHg 90%
    16:00 +25°C° 0.9 mm 2 mps 689 mmHg 93%
    17:00 +24°C° 0.6 mm 2 mps 689 mmHg 95%
    18:00 +23°C° 0.6 mm 1 mps 689 mmHg 96%
    19:00 +22°C° 0.6 mm 1 mps 689 mmHg 98%
    20:00 +22°C° 0.4 mm 1 mps 690 mmHg 98%
    21:00 +22°C° 0.4 mm 1 mps 690 mmHg 98%
    22:00 +22°C° 0.4 mm 1 mps 691 mmHg 98%
    23:00 +21°C° 0.2 mm 1 mps 691 mmHg 99%

    Tomorrow, 20 January, Saturday

    Time Temperature Precipitation Wind Pressure Humidity
    00:00 +21°C° 0.2 mm 1 mps 691 mmHg 99%
    01:00 +21°C° 0.2 mm 1 mps 690 mmHg 99%
    02:00 +21°C° 0 mm 1 mps 690 mmHg 99%
    03:00 +21°C° 0 mm 1 mps 690 mmHg 99%
    04:00 +21°C° 0 mm 1 mps 690 mmHg 99%
    05:00 +21°C° 0 mm 1 mps 690 mmHg 99%
    06:00 +19°C° 0 mm 0 mps 690 mmHg 98%
    07:00 +19°C° 0 mm 0 mps 691 mmHg 98%
    08:00 +23°C° 0 mm 1 mps 691 mmHg 90%
    09:00 +24°C° 0 mm 1 mps 692 mmHg 83%
    10:00 +26°C° 0 mm 1 mps 692 mmHg 75%
    11:00 +26°C° 0.3 mm 1 mps 692 mmHg 75%
    12:00 +27°C° 0.3 mm 2 mps 691 mmHg 75%
    13:00 +27°C° 0.3 mm 2 mps 690 mmHg 75%
    14:00 +26°C° 0.7 mm 2 mps 690 mmHg 79%
    15:00 +26°C° 0.7 mm 2 mps 689 mmHg 84%
    16:00 +25°C° 0.7 mm 2 mps 689 mmHg 88%
    17:00 +24°C° 0.7 mm 1 mps 689 mmHg 91%
    18:00 +23°C° 0.7 mm 1 mps 690 mmHg 94%
    19:00 +22°C° 0.7 mm 1 mps 690 mmHg 97%
    20:00 +21°C° 0.1 mm 1 mps 690 mmHg 98%
    21:00 +21°C° 0.1 mm 1 mps 691 mmHg 98%
    22:00 +21°C° 0.1 mm 1 mps 692 mmHg 98%
    23:00 +21°C° 0 mm 1 mps 691 mmHg 98%

    Day after tomorrow, 21 January, Sunday

    Time Temperature Precipitation Wind Pressure Humidity
    00:00 +20°C° 0 mm 1 mps 691 mmHg 98%
    01:00 +20°C° 0 mm 1 mps 691 mmHg 99%
    02:00 +18°C° 0 mm 0 mps 690 mmHg 99%
    03:00 +18°C° 0 mm 0 mps 690 mmHg 99%
    04:00 +18°C° 0 mm 0 mps 690 mmHg 99%
    05:00 +18°C° 0 mm 0 mps 690 mmHg 98%
    06:00 +19°C° 0 mm 0 mps 691 mmHg 97%
    07:00 +21°C° 0 mm 1 mps 691 mmHg 97%
    08:00 +23°C° 0 mm 1 mps 692 mmHg 87%
    09:00 +25°C° 0 mm 1 mps 692 mmHg 76%
    10:00 +27°C° 0 mm 1 mps 693 mmHg 66%
    11:00 +28°C° 0.4 mm 1 mps 692 mmHg 67%
    12:00 +28°C° 0.4 mm 2 mps 691 mmHg 68%
    13:00 +28°C° 0.4 mm 2 mps 691 mmHg 69%
    14:00 +28°C° 1 mm 2 mps 690 mmHg 75%
    15:00 +27°C° 1 mm 2 mps 690 mmHg 82%
    16:00 +26°C° 1 mm 2 mps 689 mmHg 88%
    17:00 +25°C° 0.5 mm 2 mps 689 mmHg 91%
    18:00 +23°C° 0.5 mm 1 mps 690 mmHg 94%
    19:00 +22°C° 0.5 mm 1 mps 690 mmHg 98%
    20:00 +22°C° 0.6 mm 1 mps 691 mmHg 98%
    21:00 +21°C° 0.6 mm 1 mps 691 mmHg 98%
    22:00 +21°C° 0.6 mm 1 mps 692 mmHg 98%
    23:00 +21°C° 0.4 mm 1 mps 691 mmHg 98%

    22 January, Monday

    Time Temperature Precipitation Wind Pressure Humidity
    00:00 +21°C° 0.4 mm 1 mps 691 mmHg 98%
    01:00 +21°C° 0.4 mm 1 mps 690 mmHg 98%
    02:00 +21°C° 0 mm 1 mps 690 mmHg 98%
    03:00 +20°C° 0 mm 1 mps 690 mmHg 98%
    04:00 +20°C° 0 mm 1 mps 690 mmHg 99%
    05:00 +21°C° 0 mm 1 mps 690 mmHg 98%
    06:00 +21°C° 0 mm 1 mps 691 mmHg 98%
    07:00 +21°C° 0 mm 1 mps 691 mmHg 98%
    08:00 +23°C° 0.1 mm 1 mps 692 mmHg 89%
    09:00 +25°C° 0.1 mm 1 mps 692 mmHg 80%
    10:00 +27°C° 0.1 mm 2 mps 692 mmHg 71%
    11:00 +28°C° 0.4 mm 2 mps 692 mmHg 69%
    12:00 +28°C° 0.4 mm 2 mps 691 mmHg 66%
    13:00 +29°C° 0.4 mm 2 mps 690 mmHg 64%
    14:00 +29°C° 0.9 mm 2 mps 690 mmHg 70%
    15:00 +28°C° 0.9 mm 2 mps 689 mmHg 76%
    16:00 +27°C° 0.9 mm 2 mps 689 mmHg 81%
    17:00 +26°C° 0.5 mm 1 mps 689 mmHg 86%
    18:00 +24°C° 0.5 mm 1 mps 689 mmHg 90%
    19:00 +22°C° 0.5 mm 1 mps 689 mmHg 94%
    20:00 +22°C° 0.2 mm 1 mps 690 mmHg 95%
    21:00 +22°C° 0.2 mm 1 mps 691 mmHg 96%
    22:00 +21°C° 0.2 mm 1 mps 691 mmHg 96%
    23:00 +21°C° 0.2 mm 1 mps 691 mmHg 96%

    23 January, Tuesday

    Time Temperature Precipitation Wind Pressure Humidity
    00:00 +19°C° 0.2 mm 0 mps 691 mmHg 97%
    01:00 +19°C° 0.2 mm 0 mps 690 mmHg 97%
    02:00 +18°C° 0 mm 0 mps 690 mmHg 97%
    03:00 +18°C° 0 mm 0 mps 690 mmHg 97%
    04:00 +18°C° 0 mm 0 mps 690 mmHg 97%
    05:00 +18°C° 0 mm 0 mps 690 mmHg 96%
    06:00 +18°C° 0 mm 0 mps 690 mmHg 95%
    07:00 +19°C° 0 mm 0 mps 691 mmHg 94%
    08:00 +21°C° 0.1 mm 0 mps 691 mmHg 84%
    09:00 +24°C° 0.1 mm 0 mps 692 mmHg 73%
    10:00 +27°C° 0.1 mm 0 mps 692 mmHg 62%
    11:00 +29°C° 0.1 mm 1 mps 692 mmHg 58%
    12:00 +30°C° 0.1 mm 1 mps 691 mmHg 53%
    13:00 +31°C° 0.1 mm 2 mps 690 mmHg 49%
    14:00 +30°C° 0.2 mm 2 mps 690 mmHg 54%
    15:00 +29°C° 0.2 mm 2 mps 689 mmHg 59%
    16:00 +29°C° 0.2 mm 2 mps 689 mmHg 64%
    17:00 +27°C° 0.5 mm 1 mps 689 mmHg 73%
    18:00 +25°C° 0.5 mm 1 mps 689 mmHg 82%
    19:00 +23°C° 0.5 mm 1 mps 689 mmHg 91%
    20:00 +22°C° 0.5 mm 1 mps 689 mmHg 93%
    21:00 +22°C° 0.5 mm 1 mps 690 mmHg 95%
    22:00 +21°C° 0.5 mm 1 mps 690 mmHg 97%
    23:00 +21°C° 0.2 mm 1 mps 690 mmHg 97%

    24 January, Wednesday

    Time Temperature Precipitation Wind Pressure Humidity
    00:00 +21°C° 0.2 mm 1 mps 690 mmHg 98%
    01:00 +21°C° 0.2 mm 1 mps 689 mmHg 98%
    02:00 +20°C° 0.2 mm 1 mps 689 mmHg 98%
    03:00 +20°C° 0.2 mm 1 mps 689 mmHg 98%
    04:00 +18°C° 0.2 mm 0 mps 689 mmHg 98%
    05:00 +20°C° 0.1 mm 1 mps 690 mmHg 98%
    06:00 +20°C° 0.1 mm 1 mps 690 mmHg 97%
    07:00 +21°C° 0.1 mm 1 mps 690 mmHg 97%
    08:00 +22°C° 0 mm 1 mps 691 mmHg 91%
    09:00 +23°C° 0 mm 1 mps 691 mmHg 85%
    10:00 +25°C° 0 mm 1 mps 691 mmHg 78%
    11:00 +25°C° 0.1 mm 1 mps 691 mmHg 76%
    12:00 +26°C° 0.1 mm 1 mps 690 mmHg 73%
    13:00 +27°C° 0.1 mm 1 mps 690 mmHg 71%
    14:00 +26°C° 0.3 mm 1 mps 689 mmHg 75%
    15:00 +26°C° 0.3 mm 1 mps 689 mmHg 79%
    16:00 +26°C° 0.3 mm 1 mps 688 mmHg 83%
    17:00 +24°C° 0.5 mm 1 mps 689 mmHg 87%
    18:00 +23°C° 0.5 mm 1 mps 689 mmHg 90%
    19:00 +22°C° 0.5 mm 1 mps 689 mmHg 93%
    20:00 +22°C° 0.1 mm 1 mps 690 mmHg 94%
    21:00 +21°C° 0.1 mm 1 mps 690 mmHg 95%
    22:00 +21°C° 0.1 mm 1 mps 690 mmHg 96%
    23:00 +21°C° 0.3 mm 1 mps 690 mmHg 97%
    Show more